Total_Precipitation_Accumulation
0.10 0.12 0.13 0.13 0.13 0.14 0.15 0.16 0.16 0.16 0.15 0.14 0.14 0.12 0.12 0.15 0.12 0.08 0.05 0.05 0.02 0.00 0.01 0.01 0.02 0.03 0.05 0.01 0.00 0.02 0.04 0.01 0.00 0.00 0.00 0.00 0.00 0.00 0.00 0.00 0.00 0.00 0.00 0.00 0.00
0.09 0.11 0.13 0.13 0.14 0.14 0.15 0.16 0.15 0.15 0.14 0.17 0.19 0.20 0.27 0.24 0.05 0.05 0.07 0.02 0.01 0.01 0.01 0.01 0.02 0.04 0.03 0.01 0.01 0.05 0.03 0.00 0.00 0.00 0.00 0.00 0.00 0.00 0.00 0.00 0.00 0.00 0.00 0.00 0.00
0.10 0.10 0.10 0.12 0.13 0.14 0.15 0.16 0.16 0.15 0.14 0.16 0.20 0.33 0.45 0.16 0.03 0.05 0.04 0.03 0.06 0.03 0.01 0.00 0.02 0.07 0.04 0.03 0.02 0.04 0.02 0.00 0.00 0.00 0.00 0.00 0.00 0.00 0.00 0.00 0.00 0.00 0.00 0.00 0.00
0.15 0.14 0.12 0.11 0.15 0.16 0.16 0.15 0.17 0.18 0.18 0.17 0.26 0.43 0.34 0.10 0.05 0.02 0.03 0.02 0.04 0.03 0.03 0.02 0.04 0.09 0.06 0.05 0.04 0.07 0.00 0.00 0.00 0.00 0.01 0.02 0.01 0.01 0.00 0.00 0.00 0.00 0.00 0.00 0.00
0.15 0.18 0.20 0.19 0.19 0.19 0.16 0.15 0.16 0.19 0.18 0.19 0.32 0.49 0.28 0.12 0.04 0.00 0.00 0.02 0.03 0.03 0.05 0.03 0.05 0.11 0.11 0.05 0.07 0.09 0.04 0.03 0.02 0.04 0.04 0.03 0.04 0.02 0.00 0.00 0.00 0.00 0.00 0.00 0.00
0.21 0.25 0.24 0.28 0.31 0.26 0.19 0.21 0.24 0.25 0.20 0.20 0.41 0.45 0.28 0.12 0.00 0.00 0.00 0.00 0.01 0.03 0.05 0.08 0.06 0.08 0.12 0.04 0.07 0.09 0.05 0.03 0.03 0.03 0.03 0.07 0.05 0.03 0.00 0.00 0.00 0.00 0.00 0.00 0.00
0.23 0.26 0.35 0.35 0.25 0.26 0.33 0.36 0.32 0.25 0.26 0.34 0.47 0.37 0.30 0.06 0.00 0.00 0.01 0.04 0.04 0.07 0.04 0.03 0.09 0.14 0.15 0.07 0.02 0.03 0.05 0.01 0.00 0.01 0.02 0.13 0.13 0.01 0.00 0.01 0.03 0.01 0.00 0.00 0.00
0.26 0.26 0.31 0.30 0.40 0.41 0.34 0.30 0.39 0.42 0.42 0.40 0.33 0.39 0.29 0.00 0.00 0.00 0.00 0.03 0.08 0.13 0.13 0.12 0.12 0.08 0.08 0.08 0.06 0.09 0.14 0.07 0.00 0.02 0.06 0.29 0.32 0.00 0.00 0.03 0.01 0.00 0.00 0.00 0.00
0.34 0.33 0.32 0.33 0.35 0.42 0.43 0.44 0.41 0.38 0.44 0.43 0.44 0.49 0.18 0.00 0.00 0.00 0.00 0.00 0.05 0.15 0.16 0.16 0.13 0.11 0.10 0.19 0.19 0.12 0.14 0.04 0.01 0.06 0.24 0.33 0.22 0.00 0.00 0.02 0.02 0.02 0.02 0.01 0.00
0.42 0.42 0.40 0.40 0.47 0.65 0.71 0.61 0.46 0.44 0.32 0.45 0.74 0.88 0.17 0.00 0.00 0.00 0.00 0.00 0.01 0.11 0.23 0.23 0.27 0.23 0.21 0.30 0.22 0.07 0.12 0.05 0.06 0.06 0.24 0.33 0.25 0.04 0.01 0.03 0.02 0.01 0.00 0.00 0.00
0.46 0.51 0.53 0.60 0.63 0.87 1.04 0.93 0.95 0.82 0.72 0.36 0.29 0.22 0.04 0.02 0.04 0.02 0.01 0.01 0.02 0.11 0.10 0.10 0.16 0.23 0.14 0.16 0.07 0.10 0.15 0.13 0.02 0.01 0.19 0.25 0.18 0.06 0.03 0.03 0.00 0.00 0.00 0.00 0.00
0.59 0.62 0.78 0.88 0.85 0.90 0.95 0.80 0.57 0.87 0.61 0.18 0.12 0.10 0.05 0.04 0.11 0.09 0.11 0.13 0.06 0.04 0.06 0.14 0.17 0.02 0.02 0.06 0.11 0.14 0.13 0.06 0.06 0.03 0.11 0.10 0.05 0.03 0.04 0.01 0.00 0.00 0.00 0.00 0.01
0.78 0.81 0.94 1.06 1.16 0.96 0.70 0.55 0.50 0.77 1.14 0.27 0.07 0.05 0.01 0.08 0.11 0.11 0.14 0.20 0.09 0.04 0.04 0.05 0.08 0.01 0.03 0.05 0.07 0.07 0.13 0.08 0.05 0.01 0.02 0.02 0.02 0.00 0.00 0.00 0.00 0.00 0.00 0.00 0.02
0.92 1.03 1.19 1.31 1.38 0.86 0.83 0.77 0.76 1.32 2.22 0.47 0.03 0.03 0.01 0.09 0.16 0.06 0.11 0.17 0.24 0.07 0.05 0.09 0.01 0.03 0.06 0.05 0.06 0.07 0.01 0.03 0.04 0.13 0.10 0.06 0.12 0.00 0.00 0.00 0.00 0.00 0.00 0.00 0.02
1.28 1.30 1.45 1.74 1.16 0.99 0.82 0.91 1.38 2.27 3.17 0.37 0.04 0.02 0.02 0.12 0.08 0.03 0.18 0.41 0.28 0.13 0.18 0.10 0.01 0.02 0.05 0.04 0.06 0.05 0.05 0.07 0.05 0.09 0.11 0.06 0.16 0.04 0.00 0.00 0.00 0.00 0.00 0.00 0.00
1.25 1.69 1.58 1.41 1.30 0.75 0.79 1.57 2.46 3.66 2.84 0.34 0.15 0.11 0.14 0.08 0.02 0.12 0.27 0.60 0.46 0.29 0.31 0.14 0.02 0.05 0.02 0.02 0.07 0.08 0.12 0.16 0.20 0.22 0.65 0.22 0.09 0.05 0.00 0.00 0.00 0.00 0.00 0.00 0.00
1.71 1.90 2.02 1.50 1.32 1.09 1.74 3.12 4.17 3.27 0.76 0.36 0.20 0.21 0.24 0.19 0.14 0.15 0.39 0.63 0.69 0.84 0.67 0.38 0.09 0.01 0.07 0.10 0.13 0.33 0.43 0.84 1.06 0.99 0.82 0.08 0.07 0.04 0.00 0.00 0.00 0.00 0.00 0.00 0.00
1.94 2.05 1.53 1.34 1.17 1.88 3.01 4.14 4.51 1.01 0.29 0.23 0.19 0.26 0.33 0.36 0.29 0.15 0.35 0.66 0.58 0.47 0.58 0.42 0.26 0.06 0.08 0.08 0.14 0.28 0.75 0.86 0.62 0.53 0.21 0.04 0.04 0.01 0.00 0.00 0.00 0.00 0.00 0.00 0.00
2.11 1.85 1.77 1.25 1.10 2.18 3.87 4.80 2.13 0.50 0.27 0.22 0.20 0.41 0.42 0.65 0.68 0.35 0.22 0.36 0.63 0.63 0.90 0.76 0.21 0.04 0.03 0.01 0.07 0.15 0.48 0.54 0.31 0.16 0.23 0.12 0.04 0.00 0.00 0.00 0.00 0.00 0.00 0.00 0.00
2.30 2.07 2.00 1.47 1.90 2.87 4.17 3.03 0.77 0.21 0.30 0.28 0.45 0.41 0.56 0.58 0.95 0.90 0.49 0.13 0.24 0.62 0.94 0.90 0.63 0.09 0.08 0.12 0.09 0.09 0.13 0.41 1.04 0.97 0.30 0.06 0.02 0.00 0.00 0.00 0.00 0.00 0.00 0.00 0.00
2.66 2.76 1.78 1.91 2.98 4.09 4.01 1.35 0.26 0.09 0.28 0.58 0.43 0.41 0.41 0.72 0.91 0.97 0.84 0.21 0.09 0.17 0.68 1.35 1.07 0.31 0.22 0.33 0.18 0.27 0.31 0.48 0.93 0.63 0.40 0.19 0.02 0.01 0.01 0.01 0.00 0.00 0.00 0.00 0.00
3.18 2.87 1.78 2.29 4.01 3.91 1.75 0.48 0.19 0.11 0.24 0.40 0.48 0.30 0.19 0.36 1.05 1.09 0.67 0.59 0.38 0.29 0.28 0.68 1.46 0.67 0.26 0.28 0.25 0.23 0.61 0.72 0.94 0.76 0.44 0.36 0.15 0.01 0.02 0.01 0.00 0.00 0.00 0.00 0.00
3.59 2.37 2.59 2.64 3.18 2.07 0.83 0.33 0.30 0.19 0.28 0.43 0.34 0.30 0.25 0.33 1.01 0.74 0.76 0.54 0.63 0.60 0.52 0.51 1.29 1.17 0.68 0.66 0.49 0.53 0.26 0.41 0.46 0.39 0.30 0.40 0.17 0.03 0.06 0.02 0.01 0.01 0.00 0.00 0.00
4.07 3.13 3.51 3.96 2.18 0.98 0.78 0.58 0.45 0.22 0.24 0.32 0.28 0.38 0.58 0.42 0.54 0.62 0.49 0.43 0.40 0.66 0.61 0.77 0.96 0.78 0.62 1.03 1.10 0.98 0.74 0.36 0.48 0.50 0.20 0.16 0.07 0.09 0.10 0.05 0.02 0.01 0.01 0.00 0.00
3.92 2.65 2.03 2.52 1.80 0.96 1.20 0.99 0.34 0.32 0.43 0.54 0.45 0.30 0.52 0.86 0.61 0.54 0.42 0.53 0.57 0.75 0.98 1.39 1.21 0.51 0.16 0.10 0.29 0.42 0.66 0.57 0.59 0.35 0.30 0.08 0.01 0.03 0.10 0.07 0.04 0.04 0.01 0.00 0.00
3.17 1.69 1.63 1.09 0.64 1.10 1.50 1.07 0.29 0.36 0.53 0.42 0.45 0.19 0.32 0.48 0.43 0.61 0.80 0.78 0.92 0.93 1.46 1.65 1.35 0.47 0.18 0.04 0.06 0.12 0.16 0.30 0.38 0.19 0.10 0.05 0.03 0.03 0.03 0.09 0.14 0.10 0.05 0.01 0.00
2.22 1.28 1.90 1.82 1.08 1.40 1.29 0.79 0.67 0.67 0.48 0.13 0.16 0.47 0.38 0.25 0.25 0.61 0.85 0.84 0.88 0.89 1.23 1.47 1.09 0.61 0.44 0.14 0.26 0.32 0.06 0.11 0.23 0.24 0.18 0.17 0.12 0.02 0.03 0.13 0.41 0.22 0.09 0.06 0.01